• In Belgien
  • Länderverzeichnis
  • Für 7 Tage
  • Wassertemperatur
  • Satellitenkarten
  • Wetterkarte
  • Widgets
  • user-avatar
    Anmelden

    Stündliche Wetter Kranewo

    Heute, 21 August, Dienstag

    Zeit Temperatur Niederschläge Wind Luftdruck Luftfeuchtigkeit
    00:00 +20°C° 0 mm 3 m/S 756 mmHg 66%
    01:00 +20°C° 0 mm 3 m/S 756 mmHg 67%
    02:00 +20°C° 0 mm 3 m/S 755 mmHg 70%
    03:00 +20°C° 0 mm 3 m/S 755 mmHg 70%
    04:00 +19°C° 0 mm 3 m/S 756 mmHg 71%
    05:00 +19°C° 0 mm 4 m/S 756 mmHg 71%
    06:00 +21°C° 0 mm 4 m/S 756 mmHg 65%
    07:00 +23°C° 0 mm 4 m/S 756 mmHg 59%
    08:00 +25°C° 0 mm 4 m/S 756 mmHg 53%
    09:00 +27°C° 0 mm 5 m/S 756 mmHg 48%
    10:00 +29°C° 0 mm 5 m/S 756 mmHg 42%
    11:00 +30°C° 0 mm 5 m/S 756 mmHg 36%
    12:00 +32°C° 0 mm 5 m/S 756 mmHg 35%
    13:00 +32°C° 0 mm 5 m/S 756 mmHg 34%
    14:00 +33°C° 0 mm 5 m/S 756 mmHg 32%
    15:00 +32°C° 0 mm 5 m/S 756 mmHg 33%
    16:00 +32°C° 0 mm 5 m/S 756 mmHg 35%
    17:00 +30°C° 0 mm 5 m/S 755 mmHg 36%
    18:00 +28°C° 0 mm 4 m/S 756 mmHg 43%
    19:00 +26°C° 0 mm 3 m/S 756 mmHg 49%
    20:00 +24°C° 0 mm 2 m/S 756 mmHg 56%
    21:00 +23°C° 0 mm 2 m/S 756 mmHg 58%
    22:00 +23°C° 0 mm 1 m/S 756 mmHg 59%
    23:00 +22°C° 0 mm 1 m/S 756 mmHg 61%

    Morgen, 22 August, Mittwoch

    Zeit Temperatur Niederschläge Wind Luftdruck Luftfeuchtigkeit
    00:00 +22°C° 0 mm 1 m/S 756 mmHg 59%
    01:00 +22°C° 0 mm 1 m/S 756 mmHg 57%
    02:00 +21°C° 0 mm 2 m/S 756 mmHg 56%
    03:00 +21°C° 0 mm 2 m/S 756 mmHg 54%
    04:00 +21°C° 0 mm 2 m/S 756 mmHg 52%
    05:00 +21°C° 0 mm 3 m/S 757 mmHg 51%
    06:00 +22°C° 0 mm 3 m/S 757 mmHg 48%
    07:00 +25°C° 0 mm 3 m/S 757 mmHg 45%
    08:00 +26°C° 0 mm 4 m/S 757 mmHg 42%
    09:00 +28°C° 0 mm 4 m/S 757 mmHg 37%
    10:00 +30°C° 0 mm 4 m/S 757 mmHg 33%
    11:00 +33°C° 0 mm 4 m/S 758 mmHg 29%
    12:00 +34°C° 0 mm 4 m/S 757 mmHg 28%
    13:00 +34°C° 0 mm 4 m/S 757 mmHg 27%
    14:00 +35°C° 0 mm 4 m/S 757 mmHg 27%
    15:00 +34°C° 0 mm 4 m/S 757 mmHg 28%
    16:00 +33°C° 0 mm 4 m/S 757 mmHg 30%
    17:00 +33°C° 0 mm 4 m/S 757 mmHg 32%
    18:00 +30°C° 0 mm 3 m/S 757 mmHg 40%
    19:00 +27°C° 0 mm 3 m/S 757 mmHg 48%
    20:00 +25°C° 0 mm 2 m/S 757 mmHg 56%
    21:00 +25°C° 0 mm 3 m/S 757 mmHg 61%
    22:00 +24°C° 0 mm 3 m/S 757 mmHg 67%
    23:00 +24°C° 0 mm 3 m/S 757 mmHg 73%

    übermorgen, 23 August, Donnerstag

    Zeit Temperatur Niederschläge Wind Luftdruck Luftfeuchtigkeit
    00:00 +24°C° 0 mm 3 m/S 757 mmHg 75%
    01:00 +24°C° 0 mm 3 m/S 757 mmHg 78%
    02:00 +24°C° 0 mm 3 m/S 757 mmHg 80%
    03:00 +22°C° 0 mm 4 m/S 757 mmHg 81%
    04:00 +22°C° 0 mm 4 m/S 757 mmHg 82%
    05:00 +22°C° 0 mm 4 m/S 757 mmHg 84%
    06:00 +25°C° 0 mm 5 m/S 757 mmHg 76%
    07:00 +26°C° 0 mm 5 m/S 757 mmHg 69%
    08:00 +28°C° 0 mm 6 m/S 757 mmHg 62%
    09:00 +29°C° 0 mm 6 m/S 757 mmHg 56%
    10:00 +30°C° 0 mm 7 m/S 757 mmHg 50%
    11:00 +33°C° 0 mm 8 m/S 757 mmHg 43%
    12:00 +33°C° 0 mm 8 m/S 757 mmHg 43%
    13:00 +33°C° 0 mm 8 m/S 756 mmHg 43%
    14:00 +33°C° 0 mm 8 m/S 756 mmHg 43%
    15:00 +32°C° 0 mm 7 m/S 756 mmHg 46%
    16:00 +30°C° 0 mm 7 m/S 756 mmHg 49%
    17:00 +29°C° 0 mm 7 m/S 756 mmHg 51%
    18:00 +28°C° 0 mm 6 m/S 756 mmHg 59%
    19:00 +26°C° 0 mm 5 m/S 756 mmHg 67%
    20:00 +23°C° 0 mm 5 m/S 756 mmHg 75%
    21:00 +23°C° 0 mm 4 m/S 756 mmHg 79%
    22:00 +22°C° 0 mm 4 m/S 756 mmHg 83%
    23:00 +22°C° 0 mm 4 m/S 756 mmHg 86%

    24 August, Freitag

    Zeit Temperatur Niederschläge Wind Luftdruck Luftfeuchtigkeit
    00:00 +21°C° 0 mm 3 m/S 756 mmHg 87%
    01:00 +21°C° 0 mm 3 m/S 755 mmHg 88%
    02:00 +21°C° 0 mm 3 m/S 755 mmHg 89%
    03:00 +21°C° 0 mm 3 m/S 755 mmHg 89%
    04:00 +21°C° 0 mm 3 m/S 755 mmHg 89%
    05:00 +20°C° 0 mm 3 m/S 755 mmHg 90%
    06:00 +22°C° 0 mm 4 m/S 755 mmHg 83%
    07:00 +23°C° 0 mm 4 m/S 755 mmHg 77%
    08:00 +26°C° 0 mm 4 m/S 755 mmHg 70%
    09:00 +28°C° 0 mm 4 m/S 755 mmHg 63%
    10:00 +29°C° 0 mm 4 m/S 755 mmHg 56%
    11:00 +32°C° 0 mm 4 m/S 755 mmHg 49%
    12:00 +32°C° 0,1 mm 5 m/S 754 mmHg 49%
    13:00 +32°C° 0,1 mm 5 m/S 754 mmHg 48%
    14:00 +32°C° 0,1 mm 5 m/S 753 mmHg 47%
    15:00 +32°C° 0 mm 5 m/S 753 mmHg 49%
    16:00 +30°C° 0 mm 5 m/S 753 mmHg 50%
    17:00 +30°C° 0 mm 5 m/S 753 mmHg 52%
    18:00 +28°C° 0 mm 5 m/S 753 mmHg 60%
    19:00 +26°C° 0 mm 4 m/S 753 mmHg 69%
    20:00 +24°C° 0 mm 3 m/S 753 mmHg 77%
    21:00 +24°C° 0 mm 3 m/S 753 mmHg 81%
    22:00 +23°C° 0 mm 2 m/S 753 mmHg 84%
    23:00 +21°C° 0 mm 2 m/S 753 mmHg 88%

    25 August, Samstag

    Zeit Temperatur Niederschläge Wind Luftdruck Luftfeuchtigkeit
    00:00 +21°C° 0 mm 2 m/S 753 mmHg 88%
    01:00 +21°C° 0 mm 2 m/S 752 mmHg 88%
    02:00 +21°C° 0 mm 2 m/S 752 mmHg 88%
    03:00 +20°C° 0 mm 2 m/S 752 mmHg 88%
    04:00 +20°C° 0 mm 3 m/S 752 mmHg 88%
    05:00 +20°C° 0 mm 3 m/S 752 mmHg 88%
    06:00 +21°C° 0 mm 3 m/S 752 mmHg 81%
    07:00 +24°C° 0 mm 3 m/S 752 mmHg 73%
    08:00 +26°C° 0 mm 3 m/S 752 mmHg 66%
    09:00 +27°C° 0 mm 3 m/S 752 mmHg 58%
    10:00 +29°C° 0 mm 3 m/S 752 mmHg 50%
    11:00 +31°C° 0 mm 3 m/S 752 mmHg 42%
    12:00 +33°C° 0 mm 3 m/S 751 mmHg 40%
    13:00 +33°C° 0 mm 3 m/S 751 mmHg 38%
    14:00 +34°C° 0 mm 3 m/S 751 mmHg 36%
    15:00 +33°C° 0 mm 4 m/S 750 mmHg 38%
    16:00 +33°C° 0 mm 4 m/S 750 mmHg 40%
    17:00 +32°C° 0 mm 4 m/S 750 mmHg 42%
    18:00 +29°C° 0 mm 4 m/S 750 mmHg 51%
    19:00 +27°C° 0 mm 3 m/S 750 mmHg 59%
    20:00 +25°C° 0 mm 2 m/S 750 mmHg 67%
    21:00 +24°C° 0 mm 2 m/S 750 mmHg 70%
    22:00 +24°C° 0 mm 1 m/S 750 mmHg 72%
    23:00 +23°C° 0 mm 1 m/S 750 mmHg 74%

    26 August, Sonntag

    Zeit Temperatur Niederschläge Wind Luftdruck Luftfeuchtigkeit
    00:00 +23°C° 0 mm 1 m/S 750 mmHg 74%
    01:00 +23°C° 0 mm 1 m/S 750 mmHg 75%
    02:00 +23°C° 0 mm 1 m/S 750 mmHg 75%
    03:00 +22°C° 0 mm 1 m/S 750 mmHg 75%
    04:00 +22°C° 0 mm 1 m/S 750 mmHg 76%
    05:00 +22°C° 0 mm 1 m/S 750 mmHg 76%
    06:00 +24°C° 0 mm 1 m/S 750 mmHg 69%
    07:00 +25°C° 0 mm 1 m/S 750 mmHg 62%
    08:00 +27°C° 0 mm 1 m/S 750 mmHg 55%
    09:00 +29°C° 0 mm 2 m/S 750 mmHg 50%
    10:00 +30°C° 0 mm 2 m/S 750 mmHg 45%
    11:00 +32°C° 0 mm 2 m/S 750 mmHg 40%
    12:00 +33°C° 0 mm 3 m/S 749 mmHg 40%
    13:00 +34°C° 0 mm 3 m/S 749 mmHg 40%
    14:00 +34°C° 0 mm 4 m/S 749 mmHg 40%
    15:00 +33°C° 0 mm 4 m/S 749 mmHg 44%
    16:00 +32°C° 0 mm 4 m/S 749 mmHg 48%
    17:00 +30°C° 0 mm 4 m/S 748 mmHg 52%
    18:00 +29°C° 0 mm 4 m/S 748 mmHg 60%
    19:00 +27°C° 0 mm 3 m/S 748 mmHg 68%
    20:00 +25°C° 0 mm 3 m/S 748 mmHg 76%
    21:00 +25°C° 0 mm 3 m/S 748 mmHg 80%
    22:00 +24°C° 0 mm 3 m/S 748 mmHg 84%
    23:00 +24°C° 0 mm 3 m/S 748 mmHg 88%
    Mehr zeigen